This is the latest recevied weather packets stored in our database for station/object K7FED. If no packets are shown the sender has not sent any weather packets the latest 10 day(s).
| Time | Temp. | Humidity | Pressure | Rain* | Wind** | Luminosity | Snow |
|---|---|---|---|---|---|---|---|
| 1777745357 | 20.56° C | 62% | 1011 hPa | 0 mm | - | 180 W/m² | - |
| 1777744757 | 19.44° C | 64% | 1011.1 hPa | 0 mm | - | 149 W/m² | - |
| 1777744458 | 19.44° C | 64% | 1011.1 hPa | 0 mm | - | 142 W/m² | - |
| 1777744157 | 19.44° C | 65% | 1011.1 hPa | 0 mm | - | 231 W/m² | - |
| 1777743555 | 18.89° C | 67% | 1011.1 hPa | 0 mm | - | 155 W/m² | - |
| 1777743252 | 18.89° C | 69% | 1011 hPa | 0 mm | - | 124 W/m² | - |
| 1777742354 | 17.78° C | 71% | 1011 hPa | 0 mm | - | 140 W/m² | - |
| 1777742052 | 17.78° C | 72% | 1011 hPa | 0 mm | - | 134 W/m² | - |
| 1777741737 | 17.22° C | 73% | 1011 hPa | 0 mm | - | 129 W/m² | - |
| 1777741137 | 17.22° C | 75% | 1011 hPa | 0 mm | - | 106 W/m² | - |
| 1777739938 | 17.22° C | 76% | 1011 hPa | 0 mm | - | 84 W/m² | - |
| 1777739337 | 16.67° C | 77% | 1010.9 hPa | 0 mm | - | 98 W/m² | - |
| 1777738437 | 16.11° C | 77% | 1010.9 hPa | 0 mm | - | 100 W/m² | - |
| 1777738138 | 16.11° C | 79% | 1010.8 hPa | 0 mm | - | 102 W/m² | - |
| 1777737823 | 16.11° C | 78% | 1010.7 hPa | 0 mm | - | 105 W/m² | - |
| 1777737223 | 15.56° C | 79% | 1010.7 hPa | 0 mm | - | 95 W/m² | - |
| 1777736923 | 15.56° C | 80% | 1010.7 hPa | 0 mm | - | 89 W/m² | - |
| 1777736624 | 15.56° C | 81% | 1010.6 hPa | 0 mm | - | 85 W/m² | - |
| 1777736324 | 15.56° C | 80% | 1010.6 hPa | 0 mm | - | 83 W/m² | - |
| 1777736010 | 15° C | 81% | 1010.6 hPa | 0 mm | - | 82 W/m² | - |
| 1777735709 | 15° C | 82% | 1010.5 hPa | 0 mm | - | 75 W/m² | - |
| 1777735409 | 15° C | 83% | 1010.5 hPa | 0 mm | - | 77 W/m² | - |
| 1777735110 | 15° C | 83% | 1010.5 hPa | 0 mm | - | 72 W/m² | - |
| 1777734809 | 15° C | 84% | 1010.5 hPa | 0 mm | - | 71 W/m² | - |
| 1777734510 | 14.44° C | 84% | 1010.5 hPa | 0 mm | - | 73 W/m² | - |
* Rain latest hour (hover to see other rain measurements)
** Current wind speed in m/s (hover to see current wind gust speed)